Regional Weather Roundup
Issued by NWS

Home | Current Version | Previous Version | Text Only | Print | Product List | Glossary Off
Versions: 1 2 3 4 5 6 7 8 9 10 11 12 13 14 15 16 17 18 19 20 21 22 23 24 25 26 27 28 29 30 31 32 33 34 35 36 37 38 39 40 41 42 43 44 45 46 47 48 49 50

000
ASUS45 KBOI 290810
RWRID

IDAHO REGIONAL WEATHER ROUNDUP
NATIONAL WEATHER SERVICE BOISE ID
200 AM MDT WED JUL 29 2015

NOTE: "FAIR" INDICATES FEW OR NO CLOUDS BELOW 12000 FEET
WITH NO SIGNIFICANT WEATHER AND/OR OBSTRUCTIONS TO VISIBILITY

IDZ012-014-290900-
SOUTHWEST IDAHO


CITY           SKY/WX    TMP DP  RH WIND       PRES   REMARKS
BOISE          CLEAR     62  37  39 SE6       30.20S
CALDWELL       CLEAR     54  37  54 N3        30.21S
MOUNTAIN HOME  CLEAR     51  30  44 SW3       30.21R
$$

IDZ016-017-290900-
SOUTHCENTRAL IDAHO


CITY           SKY/WX    TMP DP  RH WIND       PRES   REMARKS
BURLEY         CLEAR     46  38  73 CALM      30.27S
JEROME         CLEAR     51  34  52 E7        30.27S
TWIN FALLS     CLEAR     51  31  46 S8        30.25S
$$

IDZ019>023-290900-
SOUTHEAST IDAHO


CITY           SKY/WX    TMP DP  RH WIND       PRES   REMARKS
IDAHO FALLS    CLEAR     45  39  79 N6        30.32S
POCATELLO      CLEAR     48  37  65 CALM      30.30S
REXBURG        CLEAR     46  41  82 NE5       30.34S
$$

IDZ006-010-011-018-031-032-290900-
CENTRAL IDAHO MOUNTAINS


CITY           SKY/WX    TMP DP  RH WIND       PRES   REMARKS
MCCALL         CLEAR     47  39  74 CALM      30.30S
HAILEY         CLEAR     46  36  66 NW8       30.36R
STANLEY          N/A     37  31  78 CALM      30.40S
SALMON         CLEAR     46  43  87 CALM      30.30R
CHALLIS        CLEAR     51  39  63 E5        30.33S
$$

IDZ002-004-006-007-026-290900-
NORTHERN IDAHO


CITY           SKY/WX    TMP DP  RH WIND       PRES   REMARKS
LEWISTON       CLEAR     65  34  31 S3        30.17R
LOWELL           N/A     55  48  77 VRB3      30.26R
COEUR D`ALENE  CLEAR     57  41  54 CALM      30.20S
MULLAN PASS    CLEAR     53  32  44 SW6       30.35S
$$



USA.gov is the U.S. government's official web portal to all federal, state and local government web resources and services.